User: anonymous   Login
Location: Unspecified
(0.0000°N, 0.0000°E)
Time: 07:00:38
(UTC+00:00)
Language:

Vela 4A - Orbit

View from above orbital plane
View from above orbital plane
View from above satellite
View from above satellite

Ground track
Ground track

The orbit data is extracted from the following two-line orbital elements,

1  2765U 67040A   17118.36828699 -.00001203 +00000-0 +00000-0 0  9993
2  2765 009.0959 030.1312 4783589 178.5809 356.6287 00.21458389039229
Epoch (UTC): 28 April 2017 08:50:19
Eccentricity: 0.4783589
inclination: 9.0959°
perigee height: 55097 km
apogee height: 167847 km
right ascension of ascending node: 30.1312°
argument of perigee: 178.5809°
revolutions per day: 0.21458389
mean anomaly at epoch: 356.6287°
orbit number at epoch: 3922

The dashed part of the orbit path shows where the satellite is in the earth's shadow,  

DLR